Regional Weather Roundup
Issued by NWS

Home | Current Version | Previous Version | Text Only | Print | Product List | Glossary On
Versions: 1 2 3 4 5 6 7 8 9 10 11 12 13 14 15 16 17 18 19 20 21 22 23 24 25 26 27 28 29 30 31 32 33 34 35 36 37 38 39 40 41 42 43 44 45 46 47 48 49 50
000
ASUS42 KFFC 302110
RWRGA
WEATHER ROUNDUP FOR GEORGIA
NATIONAL WEATHER SERVICE PEACHTREE CITY GA
500 PM EDT THU MAR 30 2017

NOTE: "FAIR" INDICATES FEW OR NO CLOUDS BELOW 12,000 FEET WITH NO
SIGNIFICANT WEATHER AND/OR OBSTRUCTIONS TO VISIBILITY.

* = USE WITH CAUTION. THE STATIONS MARKED WITH AN ASTERISK MAY NOT
REPORT WEATHER SUCH AS PRECIPITATION, FOG, OR THUNDER AND ARE NOT
QUALITY CONTROLLED BY NWS.

THE REMARK "TC" DENOTES TEMPERATURE READING IN DEGREES CELSIUS.

GAZ001>058-302200-
NORTH GEORGIA

CITY           SKY/WX    TMP DP  RH WIND       PRES   REMARKS
ATLANTA        PTSUNNY   80  47  31 S12G26    29.83F
ATHENS         PTSUNNY   79  54  41 S9        29.86F
CHAMBLEE       MOSUNNY   80  48  32 S18G25    29.83F
PEACHTREE CITY MOSUNNY   82  48  30 S9G17     29.84F
ROME           CLOUDY    80  54  40 S14       29.77F
WEST ATLANTA   MOSUNNY   81  46  29 S17G25    29.82F
GAINESVILLE    MOSUNNY   78  51  38 S12G18    29.87F
CARTERSVILLE   CLOUDY    80  49  33 S15G35    29.80F


CITY           SKY/WX    TMP DP  RH WIND       PRES   REMARKS
DALTON*        CLOUDY    79  50  36 S8G17     29.77F
LAWRENCEVILLE* MOSUNNY   79  54  41 S14G23    29.86F
MARIETTA       PTSUNNY   80  46  29 S15G21    29.82F
KENNESAW*      SUNNY     81  46  30 S12G18    29.78F
CANTON*        CLOUDY    81  32  17 S16G24    29.83F
$$

GAZ059>098-102>109-302200-
CENTRAL GEORGIA

CITY           SKY/WX    TMP DP  RH WIND       PRES   REMARKS
AUGUSTA-BUSH   CLOUDY    79  63  57 SE10      29.86F
AUGUSTA-DANIEL CLOUDY    80  60  50 SE12      29.89F
COLUMBUS       CLOUDY    83  52  34 S20       29.82F
MACON          CLOUDY    81  55  40 S15       29.85F
ROBINS AFB     MOSUNNY   84  56  38 S10       29.85F


CITY           SKY/WX    TMP DP  RH WIND       PRES   REMARKS
LAGRANGE*      CLOUDY    81  61  50 S12G18    29.82F
SYLVANIA*      MOSUNNY  N/A N/A N/A SE6       29.91F
MILLEDGEVILLE* MOSUNNY   82  57  42 CALM      29.86F
$$

GAZ099>101-110>166-302200-
SOUTH GEORGIA

CITY           SKY/WX    TMP DP  RH WIND       PRES   REMARKS
SAVANNAH       PTSUNNY   78  57  48 SE13      29.91F
VALDOSTA       CLOUDY    85  58  39 SW8       29.87F
ALMA           MOSUNNY   87  53  31 S10       29.86F
ST SIMONS      CLOUDY    74  64  71 SE10      29.89F
FT STEWART     LGT RAIN  75  64  67 SE7       29.88F
ALBANY         PTSUNNY   85  58  39 SW12      29.87F
HUNTER AFB     SUNNY     79  64  60 E15       29.89F
MOODY AFB      CLOUDY    85  55  35 SW13G20   29.85F
BRUNSWICK      CLOUDY    79  64  61 SE12      29.90F


CITY           SKY/WX    TMP DP  RH WIND       PRES   REMARKS
BAINBRIDGE*    PTSUNNY   82  57  42 S16G22    29.86F
MOULTRIE*      MOSUNNY   84  54  34 S12G21    29.88F
VIDALIA*       PTSUNNY   82  59  44 S5        29.87F
WAYCROSS*      MOSUNNY   91  56  31 SW7       29.85F
DOUGLAS*       CLOUDY    86  50  28 W9        29.87F
$$



USA.gov is the U.S. government's official web portal to all federal, state and local government web resources and services.